VE3YF Weather Reports


time (UTC)temp
C
wind
direction
speed
KPH
gust
KPH
rain 1hr
cm
rain 24hr
cm
rain mn
cm
humidity
%
barometer
mb
20260510130057 6 209 8.0 16.1 0.00 0.58 0.00 73 1009.4
20260510124559 6 251 8.0 22.5 0.00 0.58 0.00 74 1009.1
20260510123059 6 296 8.0 20.9 0.00 0.58 0.00 74 1009.1
20260510121557 6 284 9.7 22.5 0.00 0.58 0.00 75 1008.7
20260510114553 6 251 8.0 16.1 0.00 0.58 0.00 80 1008.2
20260510113053 6 267 3.2 16.1 0.00 0.58 0.00 82 1007.9
20260510111552 6 242 3.2 16.1 0.00 0.58 0.00 83 1007.7
20260510110056 5 250 4.8 14.5 0.00 0.58 0.00 84 1007.4
20260510104606 5 218 4.8 14.5 0.00 0.58 0.00 84 1007.1
20260510103052 5 227 9.7 20.9 0.00 0.58 0.00 83 1006.7
20260510101558 5 190 1.6 9.7 0.00 0.58 0.00 82 1006.3
20260510100056 5 227 1.6 8.0 0.00 0.58 0.00 82 1006.0
20260510094602 5 210 3.2 8.0 0.00 0.58 0.00 81 1005.7
20260510093056 5 184 1.6 6.4 0.00 0.58 0.00 81 1005.6
20260510091554 5 0 3.2 8.0 0.00 0.58 0.00 81 1005.6
20260510090053 5 207 3.2 11.3 0.00 0.58 0.00 80 1005.4
20260510084603 5 211 3.2 9.7 0.00 0.58 0.00 80 1005.1
20260510083115 5 216 3.2 14.5 0.00 0.58 0.00 79 1004.9
20260510081614 6 205 6.4 14.5 0.00 0.58 0.00 78 1004.7
20260510080057 6 236 4.8 12.9 0.00 0.58 0.00 77 1004.5
20260510074555 6 224 4.8 14.5 0.00 0.58 0.00 77 1004.5
20260510073056 6 258 6.4 16.1 0.00 0.58 0.00 78 1004.3
20260510071555 6 259 3.2 11.3 0.00 0.58 0.00 79 1004.1
20260510070055 6 225 1.6 12.9 0.00 0.58 0.00 79 1003.9
20260510064553 6 177 3.2 12.9 0.00 0.58 0.00 79 1003.6
20260510063053 6 192 3.2 11.3 0.00 0.58 0.00 79 1003.3
20260510061603 6 217 3.2 9.7 0.00 0.58 0.00 78 1003.1
20260510060055 6 165 4.8 14.5 0.00 0.58 0.00 79 1002.9
20260510054555 6 0 1.6 6.4 0.00 0.58 0.00 80 1002.9
20260510053059 6 221 1.6 6.4 0.00 0.58 0.00 80 1002.7
20260510051557 7 0 1.6 8.0 0.00 0.58 0.00 79 1002.5
20260510050054 7 232 3.2 11.3 0.00 0.58 0.00 79 1002.3
20260510044555 7 215 3.2 12.9 0.00 0.58 0.00 81 1002.1
20260510043055 7 202 3.2 9.7 0.00 0.58 0.00 82 1002.0
20260510041554 8 193 1.6 12.9 0.00 0.58 0.00 84 1001.9
20260510034600 8 244 1.6 14.5 0.00 0.58 0.58 86 1001.6
20260510033056 8 215 4.8 12.9 0.00 0.58 0.58 87 1001.3
20260510031602 9 185 3.2 9.7 0.00 0.58 0.58 88 1001.3
20260510030058 9 193 1.6 17.7 0.00 0.58 0.58 88 1001.2
20260510024553 9 192 4.8 17.7 0.00 0.58 0.58 88 1000.8
20260510023052 9 243 3.2 12.9 0.00 0.58 0.58 88 1000.7
20260510021553 9 182 3.2 11.3 0.03 0.58 0.58 88 1000.6
20260510020100 9 223 4.8 14.5 0.03 0.58 0.58 88 1000.6
20260510014601 10 158 4.8 12.9 0.15 0.58 0.58 88 1000.6
20260510013110 10 215 1.6 12.9 0.33 0.58 0.58 88 1000.6
20260510011555 10 113 3.2 14.5 0.43 0.56 0.56 88 1000.6
20260510010056 10 205 3.2 14.5 0.48 0.56 0.56 88 1000.6
20260510004555 10 246 1.6 8.0 0.41 0.43 0.43 87 1000.7
20260510003055 10 234 1.6 8.0 0.23 0.25 0.25 84 1000.7
20260510001555 10 250 4.8 19.3 0.13 0.13 0.13 79 1000.8
20260510000056 13 246 11.3 37.0 0.08 0.08 0.08 66 1000.7
20260509234554 14 202 4.8 17.7 0.03 0.03 0.03 53 999.6
20260509233103 14 222 6.4 22.5 0.03 0.03 0.03 56 999.4
20260509231602 14 196 4.8 25.7 0.00 0.00 0.00 55 999.6
20260509230053 16 150 8.0 24.1 0.00 0.00 0.00 45 999.6
20260509224557 16 138 9.7 19.3 0.00 0.00 0.00 43 999.4
20260509223056 16 165 4.8 16.1 0.00 0.00 0.00 39 999.4
20260509221556 16 150 3.2 19.3 0.00 0.00 0.00 38 999.4
20260509220057 16 135 11.3 19.3 0.00 0.00 0.00 38 999.6
20260509214555 16 191 4.8 24.1 0.00 0.00 0.00 39 1000.6
20260509213055 16 128 9.7 25.7 0.00 0.00 0.00 36 1000.6
20260509211555 16 176 8.0 27.4 0.00 0.00 0.00 35 1000.7
20260509210106 17 195 8.0 16.1 0.00 0.00 0.00 31 1000.6
20260509204559 17 144 6.4 20.9 0.00 0.00 0.00 30 1000.6
20260509203053 17 101 3.2 17.7 0.00 0.00 0.00 29 1000.9
20260509201552 17 173 6.4 16.1 0.00 0.00 0.00 28 1000.8
20260509200106 17 184 4.8 16.1 0.00 0.00 0.00 28 1001.1
20260509194556 17 211 8.0 17.7 0.00 0.00 0.00 27 1001.1
20260509193055 17 213 4.8 17.7 0.00 0.00 0.00 27 1001.3
20260509191558 18 130 8.0 24.1 0.00 0.00 0.00 26 1001.3
20260509190058 18 161 4.8 27.4 0.00 0.00 0.00 28 1001.2
20260509184640 18 209 8.0 22.5 0.00 0.00 0.00 27 1001.5
20260509183106 18 182 4.8 19.3 0.00 0.00 0.00 27 1001.8
20260509181553 18 186 6.4 22.5 0.00 0.00 0.00 26 1001.9
20260509180105 18 173 8.0 20.9 0.00 0.00 0.00 25 1002.1
20260509174556 18 236 6.4 22.5 0.00 0.00 0.00 26 1002.2
20260509173054 18 155 9.7 27.4 0.00 0.00 0.00 26 1002.5
20260509171556 18 194 8.0 27.4 0.00 0.00 0.00 25 1002.9
20260509170059 18 134 11.3 32.2 0.00 0.00 0.00 25 1003.0
20260509164554 18 184 6.4 29.0 0.00 0.00 0.00 27 1003.1
20260509163108 18 180 6.4 29.0 0.00 0.00 0.00 26 1003.5
20260509161558 17 131 9.7 25.7 0.00 0.00 0.00 26 1003.6
20260509160055 17 124 6.4 27.4 0.00 0.00 0.00 28 1003.9
20260509154558 17 171 9.7 25.7 0.00 0.00 0.00 28 1004.4
20260509153101 17 232 8.0 22.5 0.00 0.00 0.00 30 1004.7
20260509151600 17 162 6.4 24.1 0.00 0.00 0.00 31 1005.1
20260509150057 16 180 3.2 19.3 0.00 0.00 0.00 34 1005.2
20260509144557 15 273 4.8 17.7 0.00 0.00 0.00 36 1005.3
20260509143058 15 146 4.8 16.1 0.00 0.00 0.00 34 1005.3
20260509141602 14 213 6.4 17.7 0.00 0.00 0.00 34 1005.5
20260509134557 13 207 3.2 12.9 0.00 0.00 0.00 35 1006.0
20260509133053 13 175 4.8 11.3 0.00 0.00 0.00 36 1006.5
20260509131553 11 187 6.4 12.9 0.00 0.00 0.00 43 1006.6